Dewpoint
68 70 70 70 69 69 68 65 67 68 69 68 68 70 71 71 71 71 70 69 68 68 68 67 70 70 67 66 66 60 62 60 56 54 54 61 65 65 63 65 65 66 67
70 69 66 65 66 65 65 65 68 67 67 69 70 70 70 70 72 71 70 70 69 69 69 70 69 68 71 70 69 68 66 67 63 62 59 59 62 65 67 68 65 61 63
63 58 59 59 57 55 56 58 58 59 60 61 63 68 71 71 71 72 71 71 70 69 70 71 70 68 69 68 69 67 67 68 67 65 62 62 62 62 66 68 68 66 64
56 54 55 56 56 56 57 59 59 60 60 60 60 62 64 68 70 71 71 71 71 71 70 70 70 71 68 70 70 69 68 67 66 66 65 64 63 62 62 60 64 68 64
56 56 57 59 61 61 61 61 62 62 61 61 62 62 63 62 62 69 71 71 71 70 70 71 70 70 70 70 70 70 69 67 64 63 64 64 63 59 60 61 61 64 64
57 56 56 58 60 61 62 61 63 63 63 63 62 62 61 60 61 67 70 71 71 69 70 70 71 70 70 69 69 69 71 69 68 65 62 60 62 62 63 62 61 64 63
54 54 55 56 57 60 60 62 63 63 64 63 63 62 62 63 62 65 68 68 71 70 69 67 69 69 70 70 69 67 68 68 69 69 68 67 65 65 65 66 65 62 62
53 54 55 57 59 61 61 62 63 63 63 62 62 63 63 64 63 63 67 68 67 68 67 67 66 67 69 69 70 70 70 69 69 68 69 69 69 70 70 69 68 69 68
53 55 56 58 60 61 61 62 63 63 62 62 62 63 63 64 64 63 65 65 64 66 68 67 66 66 66 64 64 68 69 70 70 68 69 69 69 68 68 69 67 65 63
53 55 57 58 60 60 61 62 63 63 62 61 61 62 61 62 63 62 64 63 62 62 64 66 66 66 66 64 64 63 66 69 69 70 69 68 68 69 67 70 69 66 63
53 55 57 58 59 60 61 61 62 62 62 61 60 60 61 62 62 61 61 63 60 59 58 57 59 63 63 63 62 63 63 67 69 70 70 70 70 69 70 70 71 69 64
56 55 57 59 58 56 59 60 61 61 60 60 60 59 57 58 60 60 59 59 61 61 60 58 59 63 63 62 62 62 62 62 67 67 69 69 70 70 71 70 70 70 69
55 55 55 57 57 58 57 58 56 57 57 57 56 56 53 52 52 54 57 57 59 61 61 59 61 62 62 61 61 61 61 62 62 62 65 66 69 70 70 69 69 71 71
56 55 53 55 57 55 57 54 55 55 55 52 52 52 52 51 52 51 51 57 58 60 62 62 62 62 62 62 62 62 61 60 60 60 61 65 67 69 69 70 69 69 69
54 54 55 55 55 55 56 58 55 55 54 54 53 54 54 54 53 53 52 54 56 58 60 60 63 62 62 63 62 63 62 62 62 62 61 65 66 68 68 69 68 69 68
55 55 55 56 56 55 54 53 52 52 53 52 52 53 53 53 53 53 52 53 55 55 58 58 59 60 60 61 63 63 62 62 63 66 65 65 65 67 69 70 70 70 69
49 49 50 51 51 52 51 52 53 52 52 51 51 52 52 53 53 53 52 52 52 54 56 57 57 58 59 62 63 63 62 62 62 61 64 64 64 63 65 69 70 69 69
48 48 49 49 50 50 50 52 54 52 50 50 52 52 53 53 52 52 51 49 55 54 55 54 55 55 57 60 62 63 63 63 65 64 63 63 64 63 62 62 63 67 67
47 47 47 47 48 48 48 48 49 51 52 51 52 52 53 54 54 52 48 52 55 54 52 53 55 55 56 57 59 63 63 62 62 64 64 63 63 62 62 61 60 63 65
45 45 46 46 46 47 47 48 48 49 50 50 51 51 53 56 56 55 54 54 55 55 53 53 55 56 57 57 59 62 62 62 62 60 60 61 61 61 60 60 60 61 64
46 46 45 46 46 46 46 46 47 48 49 50 51 52 52 53 55 55 55 58 59 57 54 53 54 56 56 57 58 57 61 61 61 60 60 60 60 58 62 61 61 62 64
46 45 44 42 42 43 44 45 46 47 48 50 51 53 53 54 55 56 55 54 56 57 58 56 54 54 54 56 56 56 58 60 60 59 60 60 60 61 62 61 62 63 63
44 42 42 41 41 42 42 44 44 45 47 48 50 55 55 56 58 57 56 55 55 55 56 57 57 53 53 53 54 56 57 56 58 59 59 60 61 61 61 62 63 64 64
40 41 41 40 41 40 39 41 42 43 45 47 50 52 55 57 59 58 58 60 59 57 55 56 56 55 54 55 55 56 59 60 60 60 61 61 61 61 61 63 64 64 64
41 40 40 39 39 38 38 39 40 42 44 45 48 50 51 53 56 59 59 58 57 55 56 55 55 56 57 57 58 58 59 58 60 61 62 63 63 63 63 64 65 64 64
40 39 37 37 37 37 37 38 39 40 42 43 45 47 48 50 52 56 59 60 60 59 57 56 56 56 57 59 60 60 59 58 60 58 60 62 63 64 65 64 64 64 64
Wind_Speed
6 4 4 6 6 6 7 8 9 10 11 12 13 12 15 15 14 15 18 18 19 17 17 13 17 16 16 14 12 16 14 14 14 14 10 5 6 2 9 9 9 12 17
7 7 6 4 2 7 11 9 5 8 10 11 13 15 14 15 15 17 19 21 20 21 20 21 19 19 20 17 15 17 16 16 14 13 13 13 5 8 10 12 13 18 10
4 3 3 2 4 4 5 7 6 9 10 12 13 11 14 16 18 18 20 21 21 21 21 22 21 23 21 21 19 19 18 16 14 16 16 14 15 14 14 12 12 14 16
5 6 5 5 8 10 11 11 11 11 12 12 13 13 15 14 16 18 20 22 21 21 22 21 22 21 23 24 21 20 19 18 19 17 16 17 17 17 14 14 13 16 15
5 7 8 9 10 11 12 13 14 13 14 13 13 14 15 16 16 15 18 21 23 22 21 22 22 23 26 25 21 23 22 21 21 20 19 19 21 16 16 16 16 11 14
7 9 9 9 11 13 14 15 15 16 16 15 15 15 15 17 16 12 14 21 22 20 23 21 22 22 25 29 30 30 24 25 24 23 20 21 20 17 15 17 11 12 9
9 10 11 11 12 13 15 15 16 17 17 16 17 17 17 18 19 19 14 16 22 20 19 17 18 21 21 23 26 29 30 28 28 25 25 23 15 17 18 12 14 14 13
12 13 13 14 15 15 15 16 17 17 16 16 17 17 18 17 20 22 17 14 18 19 18 15 19 23 19 19 23 22 25 29 28 26 27 24 24 17 12 12 13 10 13
16 15 15 16 17 17 19 19 18 18 18 18 19 18 19 20 19 20 17 19 19 21 22 21 22 23 19 9 11 16 20 23 23 31 33 28 25 21 20 18 16 19 19
18 17 16 17 19 21 21 21 20 20 21 21 22 21 20 21 22 24 19 20 23 20 20 22 22 25 23 20 19 20 21 22 19 22 22 29 31 23 27 20 19 23 21
20 20 19 19 21 22 23 23 23 23 24 22 22 21 21 23 23 23 20 22 24 24 22 20 17 20 26 27 25 22 22 16 18 15 23 21 21 22 23 22 24 25 22
20 20 20 21 23 24 22 22 22 21 22 22 22 23 24 24 26 28 30 29 27 24 24 22 20 9 13 21 18 20 22 22 17 16 15 14 18 19 19 24 25 26 23
19 20 23 24 23 22 21 22 24 23 22 22 21 20 24 22 21 25 33 32 36 29 25 21 2 5 15 18 22 22 16 17 19 16 15 18 17 17 20 18 20 25 23
22 19 21 22 23 22 23 21 21 19 21 20 20 23 22 23 23 19 15 11 28 22 26 23 23 19 17 16 14 17 19 20 21 21 20 19 19 19 21 17 15 15 17
18 18 17 18 20 21 21 21 21 19 19 20 18 20 19 19 21 7 20 19 15 9 17 14 14 16 17 16 20 23 22 21 22 21 20 20 19 17 20 17 17 16 18
16 16 16 18 17 18 21 25 25 23 25 29 28 26 26 27 32 34 34 17 15 16 17 17 17 15 16 16 19 22 22 24 20 21 23 18 19 19 18 16 17 17 20
16 17 16 17 18 20 23 25 25 25 23 22 26 31 32 31 32 34 32 32 23 14 20 21 20 20 19 18 18 21 23 22 17 18 18 19 18 19 17 18 18 19 21
19 20 17 18 19 19 22 22 21 20 22 23 24 25 26 28 31 34 30 16 19 16 20 24 24 23 23 21 20 19 21 20 16 19 19 17 18 19 18 19 20 19 23
18 18 18 18 19 21 22 25 25 22 20 21 24 25 25 27 30 31 15 17 22 22 23 24 23 25 24 23 21 21 21 19 18 18 20 19 19 18 20 21 22 22 23
20 22 21 20 20 20 19 20 21 21 21 22 23 26 25 19 23 21 18 17 21 24 26 23 21 23 23 22 19 21 20 20 21 21 21 20 19 20 22 23 22 21 22
19 20 24 20 19 19 19 20 21 21 21 22 23 23 28 23 25 22 21 20 20 21 24 25 22 22 22 21 19 20 19 21 22 21 20 22 21 21 22 21 20 20 21
21 22 20 19 20 21 20 20 20 20 21 21 24 25 28 23 23 24 24 24 20 22 23 19 21 21 22 22 22 24 22 24 25 22 22 22 22 19 17 17 19 18 20
22 22 20 20 18 22 22 20 18 20 19 21 24 22 21 21 21 23 23 22 19 22 19 19 22 23 22 22 21 20 24 24 23 21 22 22 23 22 21 21 21 21 20
21 21 20 21 19 18 21 19 18 21 20 20 20 19 19 20 23 21 22 21 21 23 20 20 21 25 22 22 18 18 14 14 16 20 19 19 23 22 23 21 22 23 22
20 22 21 21 19 19 20 18 19 19 18 18 18 17 18 20 21 18 20 19 21 22 18 24 23 18 20 21 25 18 15 12 20 21 18 19 20 22 20 19 20 22 23
22 21 21 19 18 17 18 18 18 18 18 18 17 18 18 19 20 20 20 21 20 17 25 25 16 21 23 19 19 21 21 22 17 18 19 21 19 18 17 21 23 19 19
Wind_Direction
155 136 151 200 227 226 243 261 277 290 288 279 266 257 270 264 250 235 229 243 213 232 251 235 214 239 243 239 235 265 255 261 255 269 278 134 134 223 282 280 240 223 213
140 163 163 162 239 247 224 249 247 289 290 284 274 272 271 268 258 242 236 236 225 217 220 235 227 225 227 237 237 238 251 262 285 264 267 286 278 200 218 254 266 282 300
168 179 88 350 253 271 265 261 308 304 305 300 301 281 267 273 270 257 239 240 238 233 225 220 226 232 234 236 225 241 230 243 244 255 262 254 246 233 210 229 244 254 271
15 352 345 300 301 313 315 302 298 298 292 296 299 307 303 286 268 263 254 239 237 234 234 231 224 228 229 233 239 236 245 239 230 235 247 258 247 238 230 238 237 224 241
327 307 297 299 301 297 290 286 281 281 284 288 285 286 290 289 281 272 260 260 241 239 237 230 230 224 218 225 232 236 240 239 242 231 227 237 253 251 240 225 223 241 271
278 278 288 279 275 279 282 285 287 282 279 280 275 279 278 280 290 291 286 271 260 260 252 254 247 234 232 227 227 227 228 232 239 245 243 234 232 238 245 254 245 220 246
290 293 293 289 289 289 289 287 278 276 279 281 283 280 276 278 279 272 253 273 270 264 265 277 262 245 245 241 232 236 238 236 234 238 248 261 258 231 242 239 248 256 259
288 290 292 291 293 292 288 287 282 272 269 271 276 276 277 273 273 274 247 257 273 264 271 271 267 265 261 267 244 243 239 238 241 242 241 247 255 259 267 246 255 247 257
287 290 291 295 297 296 292 286 281 274 270 271 272 272 274 274 273 265 256 271 268 265 264 268 266 265 268 282 291 262 256 257 246 231 236 245 245 247 246 240 232 237 242
299 297 303 306 298 294 291 287 281 276 271 268 269 267 266 267 263 262 247 262 267 263 260 258 245 244 248 250 263 264 262 259 258 252 234 238 241 243 241 236 232 235 240
305 303 299 296 294 291 285 279 275 272 269 271 271 271 273 272 270 265 251 249 258 266 264 263 260 241 232 228 230 247 253 263 265 278 250 235 234 229 233 233 229 240 248
301 296 297 295 291 292 295 290 284 281 275 272 270 269 266 257 249 248 246 240 251 257 265 269 274 278 245 223 231 243 246 263 271 253 288 253 232 225 231 240 221 224 238
297 291 287 287 291 289 286 288 287 278 271 268 267 275 280 278 264 243 235 231 235 238 249 261 195 201 205 211 227 240 238 244 246 251 237 260 246 244 236 250 234 205 218
299 295 296 294 288 292 289 282 273 276 272 281 283 279 277 278 286 276 278 254 244 235 243 257 253 237 218 217 246 252 236 238 237 236 240 231 232 225 234 232 232 213 214
306 301 293 291 289 294 291 286 284 282 283 289 286 292 288 282 272 306 316 318 317 314 308 282 259 222 224 225 236 237 243 225 231 240 242 227 237 234 235 228 229 213 217
316 311 311 303 294 290 290 291 279 267 270 273 269 266 272 276 285 289 296 302 308 323 304 277 270 255 250 244 241 240 234 236 224 231 237 237 235 238 230 220 217 212 216
307 301 300 295 288 285 290 291 293 290 281 269 267 259 257 262 271 273 273 280 284 277 268 273 268 266 264 245 232 238 244 239 249 229 224 226 235 243 227 220 217 220 222
301 292 283 280 284 288 281 282 288 281 292 289 290 277 259 256 264 268 267 271 273 241 246 250 252 252 249 245 241 242 244 248 234 234 227 224 220 238 236 237 234 219 227
305 299 298 295 290 290 294 290 289 290 283 284 285 281 275 265 262 264 240 246 256 253 249 241 237 243 244 246 237 233 244 252 228 220 224 226 225 223 230 239 238 227 227
313 307 299 292 290 287 285 282 281 280 283 284 282 282 283 293 272 260 237 232 237 243 249 245 232 236 242 236 228 224 234 234 240 237 233 232 236 219 233 241 244 240 226
308 305 304 299 294 288 285 288 286 282 281 281 280 279 284 287 281 276 270 252 244 249 236 241 242 230 239 240 234 231 235 238 234 234 230 237 237 232 212 235 234 237 235
314 305 301 307 309 300 294 294 290 288 283 284 286 276 271 267 267 263 264 259 252 235 240 252 235 236 235 229 228 226 229 231 230 235 236 233 240 242 246 235 228 248 240
311 307 312 302 299 302 298 292 294 290 290 293 289 284 264 263 261 261 255 260 253 245 240 228 252 245 240 245 236 226 228 231 227 233 241 239 236 240 238 238 240 239 235
325 314 306 305 297 303 299 294 297 292 288 291 294 303 305 306 268 254 259 260 256 264 245 243 244 246 246 243 242 234 223 228 250 260 254 243 251 253 242 232 236 236 235
321 317 312 307 304 304 301 299 296 294 297 296 300 304 308 307 313 303 274 265 255 255 248 247 241 220 227 249 257 252 260 260 228 238 250 252 248 248 252 240 230 231 234
329 325 322 316 311 309 305 301 301 300 301 302 304 308 310 311 314 311 314 308 283 269 264 255 246 238 235 244 248 251 253 251 250 244 249 256 254 253 248 236 230 225 227